weather.gov     
National Weather Service

Regional Weather Roundup
NWS Homepage
This page is being discontinued on March 12, 2014.
The same data is available at this site. Please update your bookmarks.
Thank you, and we apologize for the inconvenience.
Please send an email to SR-SRH.Webmaster@noaa.gov with any concerns.


Current Version
Previous Version:    01  02  03  04  05  06  07  08  09  10  11  12  13  14  15  16  17  18  19  20  21  22  23  24  25  26  
[Printable]
439
ASUS41 KALY 282210
RWRALY

NEW YORK STATE HOURLY WEATHER ROUNDUP
NATIONAL WEATHER SERVICE ALBANY NY
600 PM EDT MON JUL 28 2014

NOTE: "FAIR" INDICATES FEW OR NO CLOUDS BELOW 12,000 FEET WITH NO
SIGNIFICANT WEATHER AND/OR NO OBSTRUCTIONS TO VISIBILITY.

NYZ032-033-038>043-046>054-057>066-NYZ062>081-282300-
EAST


CITY           SKY/WX    TMP DP  RH WIND       PRES   REMARKS
ALBANY         CLOUDY    69  65  86 W6        29.51R
GLENS FALLS    CLOUDY    68  63  84 N5        29.50R
POUGHKEEPSIE   PTSUNNY   75  63  66 SW12G17   29.53R
NEWBURGH       MOSUNNY   68  66  94 SW16      29.56R
MONTGOMERY     PTSUNNY   73  63  70 W9        29.56R
WHITE PLAINS   MOSUNNY   79  59  50 W13G25    29.55R
ISLIP          MOSUNNY   84  59  42 W20G25    29.52S
NEW YORK CITY  PTSUNNY   83  57  41 W20G26    29.54R
CENTRAL PARK   MOSUNNY   80  58  46 W9G18     29.58R
$$

NYZ005>009-017-018-044>046-055-056-282300-
CENTRAL


CITY           SKY/WX    TMP DP  RH WIND       PRES   REMARKS
FULTON         LGT RAIN  61  57  87 NW12      29.71R
SYRACUSE       LGT RAIN  61  59  93 NW14      29.69R
ROME           LGT RAIN  62  59  90 NW12      29.64R
ELMIRA         CLOUDY    62  58  86 N12       29.74R
BINGHAMTON     LGT RAIN  60  58  92 NW10      29.68R
MONTICELLO     CLOUDY    64  63  94 W12       29.62R
$$

NYZ026>034-041>043-282300-
NORTH


CITY           SKY/WX    TMP DP  RH WIND       PRES   REMARKS
WATERTOWN      LGT RAIN  61  55  81 N10       29.70R
FORT DRUM      NOT AVBL
MASSENA        LGT RAIN  61  59  93 NW12      29.66R
SARANAC LAKE   LGT RAIN  58  56  93 N10G18    29.60R
PLATTSBURGH    RAIN      62  61  96 NW17      29.55R FOG
$$

NYZ001>004-010>016-019>021-282300-
WEST


CITY           SKY/WX    TMP DP  RH WIND       PRES   REMARKS
NIAGARA FALLS  PTSUNNY   68  54  60 N14       29.79R
BUFFALO        CLOUDY    65  54  67 NW13      29.79R
DUNKIRK        CLOUDY    66  54  65 N9        29.82R
JAMESTOWN      PTSUNNY   59  55  88 NW6       29.84R
WELLSVILLE     LGT RAIN  58  53  84 NW14      29.83R
ROCHESTER      CLOUDY    61  57  87 W3        29.77R
PENN YAN       LGT RAIN  59  57  93 NW10      29.76R
$$

             KEY
       WCI = WIND CHILL INDEX
       VSB = VISIBILITY
       HX  = HEAT INDEX
$$




U.S. Dept. of Commerce
NOAA National Weather Service
1325 East West Highway
Silver Spring, MD 20910
E-mail: w-nws.webmaster@noaa.gov
Page last modified: May 16, 2007
NATIONAL WEATHER SERVICE: for Safety, for Work, for Fun - FOR LIFE